Regional Weather Roundup
Issued by NWS

Home | Current Version | Previous Version | Graphics & Text | Print | Product List | Glossary On
Versions: 1 2 3 4 5 6 7 8 9 10 11 12 13 14 15 16 17 18 19 20 21 22 23 24 25 26 27 28 29 30 31 32 33 34 35 36 37 38 39 40 41 42 43 44 45 46 47 48 49 50
586
ASUS43 KLMK 220702
RWRKY
KENTUCKY REGIONAL WEATHER ROUNDUP
NATIONAL WEATHER SERVICE LOUISVILLE KY
300 AM EDT SUN APR 22 2018

NOTE "FAIR" INDICATES FEW OR NO CLOUDS BELOW 12,000 FEET
WITH NO SIGNIFICANT WEATHER AND/OR OBSTRUCTIONS TO VISIBILITY.

KYZ001>023-026-027-061>063-070>075-220800-
WESTERN AND SOUTH CENTRAL KENTUCKY

CITY           SKY/WX    TMP DP  RH WIND       PRES   REMARKS
PADUCAH        LGT RAIN  55  50  83 E5        30.15F
HENDERSON      FAIR      57  36  45 E8        30.21S
OWENSBORO      FAIR      58  32  37 E7        30.21R
HOPKINSVILLE   FAIR      59  38  45 E8        30.15F
BOWLING GREEN  FAIR      57  38  48 E7        30.19F
GLASGOW        NOT AVBL
$$

KYZ024-025-028>034-038-045-046-053-220800-
NORTH CENTRAL KENTUCKY

CITY           SKY/WX    TMP DP  RH WIND       PRES   REMARKS
LOUISVILLE/SDF FAIR      54  26  34 NE7       30.24F
LOUISVILLE/LOU FAIR      53  27  36 NE8       30.25F
FORT KNOX      FAIR      53  28  38 NE9       30.23F
$$

KYZ035>037-039>044-047>052-055>060-089>105-220800-
NORTHEAST KENTUCKY

CITY           SKY/WX    TMP DP  RH WIND       PRES   REMARKS
LEXINGTON      FAIR      49  32  52 NE9       30.25F
COVINGTON      CLOUDY    50  26  39 NE8       30.29F
FRANKFORT      FAIR      52  26  36 NE7       30.24F
$$

KYZ054-064>069-076>088-106>120-220800-
SOUTHEAST KENTUCKY

CITY           SKY/WX    TMP DP  RH WIND       PRES   REMARKS
JACKSON        FAIR      53  20  27 NE6       30.26F
LONDON         FAIR      56  24  29 NE3       30.24F
SOMERSET       NOT AVBL
MIDDLESBORO    FAIR      45  40  81 CALM      30.26S
MONTICELLO     FAIR      47  43  86 VRB6      30.24F
$$





USA.gov is the U.S. government's official web portal to all federal, state and local government web resources and services.